Regional Weather Roundup
Issued by NWS Lake Charles, LA

Home | Current Version | Previous Version | Text Only | Print | Product List | Glossary On
Versions: 1 2 3 4 5 6 7 8 9 10 11 12 13 14 15 16 17 18 19 20 21 22 23 24 25 26 27 28 29 30 31 32 33 34 35 36 37 38 39 40 41 42 43 44 45 46 47 48 49 50
000
ASUS44 KLCH 251910
RWRLCH
RWRLCH
REGIONAL WEATHER ROUNDUP
NATIONAL WEATHER SERVICE LAKE CHARLES LA
200 PM CDT SAT APR 25 2015

Note: "fair" indicates few or no clouds below 12,000 feet with no
significant weather and/or obstructions to visibility.


ACROSS SOUTHEAST TEXAS

CITY           SKY/WX    TMP DP  RH WIND       PRES   REMARKS
BEAUMONT       MOSUNNY   79  69  71 S13       29.76S
BEAUMONT CITY    N/A     79  69  71 S8        29.76S
ORANGE         PTCLDY    77  65  66 SE9       29.78F
JASPER         SUNNY     83  71  65 S10       29.76R
$$

ACROSS CENTRAL LOUISIANA

CITY           SKY/WX    TMP DP  RH WIND       PRES   REMARKS
LEESVILLE      PTSUNNY   80  67  65 S9        29.73F
FULLERTON        N/A     83  68  60 VRB3      29.72F
ALEXANDRIA INT CLOUDY    79  71  76 S9        29.70F
ESLER FIELD    LGT RAIN  79  68  69 S14       29.71F
DERIDDER         N/A     79  66  63 S9        29.78R
OAKDALE        CLOUDY    75  69  80 S6        29.78R
OPELOUSAS        N/A     70  67  90 S17G24    29.79R
$$

ACROSS SOUTHWEST AND SOUTH CENTRAL LOUISIANA

CITY           SKY/WX    TMP DP  RH WIND       PRES   REMARKS
SULPHUR        CLOUDY    76  71  84 E13       29.77F
LAKE CHARLES   CLOUDY    72  68  87 SE15      29.77F
CHENNAULT INT  PTSUNNY   72  66  83 SE15      29.79R
CAMERON PHI    CLEAR     72  66  83 SE13G28   29.79F
DEQUINCY         N/A     76  72  88 SE10      29.77R
JENNINGS         N/A     69  66  90 SE7       29.80F
LAFAYETTE      LGT RAIN  69  67  93 SE9G18    29.79F FOG
NEW IBERIA     LGT RAIN  70  67  90 VRB5      29.84F
ABBEVILLE      CLOUDY    68  66  95 CALM      29.84F
PATTERSON      CLOUDY    68  64  88 NE6       29.88F
SALT POINT       N/A     69  67  93 VRB5      29.84F
$$

SELECTED SITES ACROSS THE REGION

CITY           SKY/WX    TMP DP  RH WIND       PRES   REMARKS
HOUSTON BUSH   MOSUNNY   85  67  54 SW7       29.74F
HOUSTON HOBBY  MOSUNNY   81  70  69 S12       29.77R
GALVESTON      LGT RAIN  74  70  87 SE18      29.78F
COLLEGE STAT   SUNNY     87  60  40 W8        29.73F
CONROE         SUNNY     83  66  56 W8        29.74F
HUNTSVILLE     SUNNY     85  68  56 W6        29.72F
LUFKIN         SUNNY     88  67  49 W7        29.71F
SHREVEPORT     MOSUNNY   86  64  47 W15       29.66F
MONROE         PTSUNNY   81  72  74 SW17G24   29.68F
NATCHEZ MS     CLOUDY    73  66  78 SW10G16   29.74R
BATON ROUGE    LGT RAIN  70  67  90 SE9       29.79F
N.O. INTL ARPT TSTM      70  67  90 W22G30    29.92R FOG
SLIDELL        TSTM      71  70  96 NW9G18    29.93R FOG
$$

MARINE REPORTS

STATION/POSITION TIME  TEMP    WIND        PRES    VSBY  WAVE
                       AIR SEA DIR/SP/G                  HT/PER
                 (UTC) (F)     (DEG/KT/KT) (MB)    (MI)  (FT/S)
BUOY 30 S HIGH I 1850   73 74  140/ 14/ 16 1008.3R         2/ 5
SEA RIM ST PARK  1900   74     150/ 12/ 15 1008.5R
PORT ARTHUR      1800      73  160/  7/ 12 1008.2F
SABINE PASS N    1800   72 75  140/  9/ 14 1008.2F
TEXAS POINT      NOT AVBL
CALCASIEU PASS   1800   73 77  150/ 14/ 19   N/A
LK CHARLES BEACH 1800   71 73              1007.3F
MARSH ISLAND     NOT AVBL
FRESH WATER LOCK 1800   67 78   70/  5/  7 1010.8F
AMERADA PASS     1800   70 71  310/ 13/ 20 1012.3R
$$



USA.gov is the U.S. government's official web portal to all federal, state and local government web resources and services.